Regional Weather Roundup
Issued by NWS Jackson, KY

Home | Current Version | Previous Version | Text Only | Print | Product List | Glossary Off
Versions: 1 2 3 4 5 6 7 8 9 10 11 12 13 14 15 16 17 18 19 20 21 22 23 24 25 26 27

000
ASUS43 KJKL 180510
RWRJKL

EAST KENTUCKY HOURLY WEATHER ROUNDUP
NATIONAL WEATHER SERVICE JACKSON KY
1200 AM EST SAT NOV 18 2017

NOTE: "FAIR" INDICATES FEW OR NO CLOUDS BELOW 12,000 FEET WITH
NO SIGNIFICANT WEATHER AND/OR OBSTRUCTIONS TO VISIBILITY.

* THESE REPORTS ARE NOT UNDER NWS QUALITY CONTROL AND MAY NOT
  REPORT WEATHER SUCH AS PRECIPITATION AND FOG.

KYZ079-080-083-085-087-088-110-112-115-119-120-180600
...EASTERN KENTUCKY...

CITY           SKY/WX    TMP DP  RH WIND       PRES   REMARKS
JACKSON        CLOUDY    51  30  44 VRB5      29.92F
LONDON         PTCLDY    54  36  50 S8        29.90F
SOMERSET*      PTCLDY    55  36  47 S8G18     29.92F
MONTICELLO*    CLOUDY    59  38  45 S9G18     29.92F
WILLIAMSBURG*  PTCLDY    54  37  54 SE9       29.93F
MIDDLESBORO*   CLOUDY    55  37  51 S5        29.99S
HARLAN APT*    CLOUDY    50  32  50 CALM      29.97F
PIKE CO APT*     N/A     52  26  37 S9        29.92F
BIG SANDY APT* MOCLDY    52  27  37 S10       29.91F
MOREHEAD APT*  CLOUDY    50  30  46 S7        29.88F
$$

KYZ035-036-041-042-044-050-067-078-099-180600
...CENTRAL KENTUCKY...

CITY           SKY/WX    TMP DP  RH WIND       PRES   REMARKS
MT STERLING*   MOCLDY    52  34  50 SW15G22   29.86F
FLEMING/MASON* CLOUDY    49  32  51 S13       29.84F
DANVILLE*      PTCLDY    54  34  47 S8        29.87F
LEXINGTON      PTCLDY    54  36  50 S14       29.83F
FRANKFORT      CLOUDY    54  36  50 S9        29.81F
LOUISVILLE     CLOUDY    59  36  42 S14       29.79F
LEBANON*       MOCLDY    57  32  38 S18G24    29.82F
GLASGOW*       CLOUDY    59  32  35 S10G21    29.87R
BOWLING GREEN  CLOUDY    62  35  36 SW16G24   29.87R
$$

KYZ091>093-OHZ055-061-077-WVZ005-015-034-035-042-180600
...SOUTHERN OHIO/WEST VIRGINIA...

CITY           SKY/WX    TMP DP  RH WIND       PRES   REMARKS
COVINGTON      CLOUDY    53  37  54 S20G28    29.77F
COLUMBUS       CLOUDY    45  31  58 SE10      29.79F
DAYTON         CLOUDY    50  34  54 S17G26    29.74F
WILMINGTON     CLOUDY    48  33  56 S15       29.78F
HUNTINGTON     CLOUDY    41  30  65 CALM      29.89F
CHARLESTON     CLOUDY    36  31  82 N3        29.92F
PINEVILLE*     CLOUDY    40  34  78 MISG      30.02F
BECKLEY        PTCLDY    45  23  42 S14G21    29.98F
BLUEFIELD      PTCLDY    48  21  34 CALM      30.00F
LOGAN CO APT*    N/A     52  23  32 S6G12     29.93F
$$

VAZ002-007-008-TNZ017-027-036-066-071-180600
...SOUTHWEST VIRGINIA/EAST TENNESSEE...

CITY           SKY/WX    TMP DP  RH WIND       PRES   REMARKS
WISE*          CLOUDY    50  32  50 S7        30.01S
JONESVILLE*      N/A     39  36  87 CALM      30.04S
ABINGDON*      PTCLDY    46  32  57 CALM      30.02S
BRISTOL        MOCLDY    38  33  82 CALM      30.01F
MORRISTOWN*    PTCLDY    46  36  66 CALM      30.00F
SEVIERVILLE*   PTCLDY    41  39  93 CALM      30.01F
KNOXVILLE      CLOUDY    45  43  93 E6        29.99F
LAFOLLETTE*    CLEAR     52  39  62 CALM      30.01S
OAK RIDGE      PTCLDY    55  39  54 VRB3      30.01F
CROSSVILLE     CLOUDY    54  38  54 S14G22    29.97F
NASHVILLE      MOCLDY    60  35  39 S18       29.89F
$$

...KEY TO REMARKS...
VSB - VISIBILITY IN MILES
WCI - WIND CHILL INDEX
HX  - HEAT INDEX

$$




USA.gov is the U.S. government's official web portal to all federal, state and local government web resources and services.